Location: NJAA Observatory
(40.6819°N, 74.8979°W)
Time: 06:57:44
(UTC-04:00)

Landsat 5 - Visible Passes

Search period start: 25 April 2015 00:00
Search period end: 05 May 2015 00:00
Orbit: 533 x 662 km, 98.0° (Epoch: 24 April)

Date Brightness Start Highest point End Pass type
(mag) Time Alt. Az. Time Alt. Az. Time Alt. Az.
25 Apr 5.5 23:38:37 28° N 23:38:37 28° N 23:40:51 10° N visible
26 Apr 5.5 23:48:57 29° N 23:48:57 29° N 23:51:10 10° N visible
27 Apr 6.1 22:22:35 11° NE 22:22:35 11° NE 22:23:21 10° NE visible
27 Apr 5.6 23:59:16 28° NNW 23:59:16 28° NNW 00:01:28 10° NNW visible
28 Apr 6.0 22:32:54 14° NE 22:32:54 14° NE 22:34:29 10° NNE visible
29 Apr 5.6 00:09:35 27° NNW 00:09:35 27° NNW 00:11:42 10° NNW visible
29 Apr 5.8 22:43:13 17° NE 22:43:13 17° NE 22:45:15 10° NNE visible
30 Apr 5.8 00:19:54 24° NW 00:19:54 24° NW 00:21:52 10° NNW visible
30 Apr 5.6 22:53:32 20° NE 22:53:32 20° NE 22:55:53 10° NNE visible
01 May 5.9 00:30:13 21° NW 00:30:13 21° NW 00:31:59 10° NNW visible
01 May 5.4 23:03:50 24° NE 23:03:50 24° NE 23:06:24 10° N visible
02 May 6.0 00:40:31 18° NW 00:40:31 18° NW 00:42:02 10° NW visible
02 May 5.2 23:14:08 28° NE 23:14:08 28° NE 23:16:50 10° N visible
03 May 6.2 00:50:49 15° NW 00:50:49 15° NW 00:51:58 10° NW visible
03 May 5.1 23:24:25 32° NNE 23:24:25 32° NNE 23:27:13 10° N visible
04 May 6.3 01:01:06 13° WNW 01:01:06 13° WNW 01:01:47 10° NW visible
04 May 5.0 23:34:42 36° NNE 23:34:42 36° NNE 23:37:32 10° N visible
